Fort Knox, KY

2:58 AM EDT on August 17, 2017 (GMT -0400)
Godman Army Air Field

Weather History for KFTK - March, 2013

Change the Weather History Date:

Sunday, March 31, 2013

  Actual Average Record
Temperature  
Mean Temperature 54 °F -  
Max Temperature 61 °F 61 °F 80 °F (1998)
Min Temperature 45 °F 40 °F 33 °F (2003)
Degree Days  
Heating Degree Days 12    
Growing Degree Days 4 (Base 50)    
Moisture  
Dew Point 47 °F    
Average Humidity 92    
Maximum Humidity 100    
Minimum Humidity 52    
Precipitation  
Precipitation 0.06 in - - ()
Sea Level Pressure  
Sea Level Pressure 29.86 in    
Wind  
Wind Speed 4 mph (West)    
Max Wind Speed 14 mph    
Max Gust Speed -    
Visibility 6 miles    
Events Rain    
Averages and records for this station are not official NWS values.
T = Trace of Precipitation, MM = Missing Value Source: NWS Daily Summary

Daily Weather History Graph

Daily Weather History Graph

Search for Another Location

Airport or City:

Trip Planner

Search our weather history database for the weather conditions in past years. The results will help you decide how hot, cold, wet, or windy it might be!

Date:

Astronomy

Mar. 31, 2013 Rise Set
Actual Time 7:30 AM EDT 8:06 PM EDT
Civil Twilight 7:03 AM EDT 8:32 PM EDT
Nautical Twilight 6:32 AM EDT 9:03 PM EDT
Astronomical Twilight 6:00 AM EDT 9:36 PM EDT
Moon 12:07 AM EDT (3/31) 10:21 AM EDT (3/31)
Length of Visible Light 13h 28m
Length of Day
12h 35m
Waning Gibbous, 78% of the Moon is Illuminated
Mar 31
Waning Gibbous
Apr 3
Last Quarter
Apr 10
New
Apr 18
First Quarter
Apr 25
Full

Hourly Weather History & Observations

Time (EDT) Temp. Dew Point Humidity Pressure Visibility Wind Dir Wind Speed Gust Speed Precip Events Conditions
12:55 AM 49.1 °F 46.8 °F 92% 29.91 in 10.0 mi Calm Calm - 0.00 in   Light Drizzle
1:55 AM 49.1 °F 48.0 °F 96% 29.89 in 9.0 mi Calm Calm - 0.02 in Rain Light Rain
2:44 AM 48.2 °F 48.2 °F 100% 29.86 in 10.0 mi ENE 3.5 mph - N/A   Overcast
2:55 AM 48.6 °F 48.2 °F 99% 29.86 in 10.0 mi East 3.5 mph - 0.01 in   Overcast
3:14 AM 48.2 °F 48.2 °F 100% 29.86 in 10.0 mi ENE 3.5 mph - N/A   Overcast
3:15 AM 48.2 °F 48.2 °F 100% 29.86 in 10.0 mi Calm Calm - N/A Rain Light Rain
3:37 AM 48.2 °F 48.2 °F 100% 29.85 in 6.0 mi Calm Calm - N/A   Light Drizzle
3:55 AM 48.2 °F 48.2 °F 100% 29.83 in 3.0 mi ENE 3.5 mph - 0.01 in   Light Drizzle
4:04 AM 48.2 °F 48.2 °F 100% 29.83 in 4.0 mi East 4.6 mph - N/A   Overcast
4:15 AM 48.2 °F 48.2 °F 100% 29.83 in 6.0 mi Calm Calm - N/A   Overcast
4:17 AM 48.2 °F 48.2 °F 100% 29.83 in 6.0 mi Calm Calm - N/A   Overcast
4:41 AM 48.2 °F 48.2 °F 100% 29.82 in 7.0 mi Calm Calm - N/A   Overcast
4:50 AM 48.2 °F 48.2 °F 100% 29.82 in 5.0 mi Calm Calm - N/A Rain Light Rain
4:55 AM 48.0 °F 48.0 °F 100% 29.83 in 2.5 mi WNW 4.6 mph - 0.00 in Rain Light Rain
5:12 AM 48.2 °F 48.2 °F 100% 29.83 in 3.0 mi WNW 4.6 mph - N/A Rain Light Rain
5:21 AM 48.2 °F 48.2 °F 100% 29.83 in 5.0 mi WNW 4.6 mph - N/A   Overcast
5:30 AM 48.2 °F 48.2 °F 100% 29.82 in 4.0 mi WNW 4.6 mph - N/A   Overcast
5:32 AM 48.2 °F 48.2 °F 100% 29.82 in 3.0 mi WNW 4.6 mph - N/A   Overcast
5:55 AM 47.5 °F 47.5 °F 100% 29.83 in 4.0 mi WNW 4.6 mph - 0.01 in   Overcast
6:08 AM 48.2 °F 48.2 °F 100% 29.83 in 2.5 mi NW 4.6 mph - N/A   Overcast
6:11 AM 48.2 °F 48.2 °F 100% 29.83 in 2.5 mi NW 4.6 mph - N/A   Light Drizzle
6:16 AM 48.2 °F 48.2 °F 100% 29.83 in 3.0 mi NW 4.6 mph - N/A   Light Drizzle
6:26 AM 48.2 °F 48.2 °F 100% 29.83 in 3.0 mi West 5.8 mph - N/A   Overcast
6:55 AM 47.3 °F 47.3 °F 100% 29.84 in 4.0 mi WNW 6.9 mph - 0.01 in   Overcast
7:42 AM 48.2 °F 48.2 °F 100% 29.84 in 1.5 mi West 5.8 mph - N/A   Light Drizzle
7:55 AM 47.3 °F 47.3 °F 100% 29.86 in 2.0 mi West 6.9 mph - 0.00 in   Light Drizzle
8:21 AM 48.2 °F 48.2 °F 100% 29.86 in 2.5 mi West 6.9 mph - N/A   Overcast
8:51 AM 48.2 °F 48.2 °F 100% 29.86 in 1.8 mi West 6.9 mph - N/A   Overcast
8:55 AM 47.5 °F 47.5 °F 100% 29.88 in 1.5 mi West 6.9 mph - 0.00 in   Overcast
9:55 AM 48.0 °F 48.0 °F 100% 29.89 in 2.0 mi West 6.9 mph - N/A   Overcast
10:18 AM 48.2 °F 48.2 °F 100% 29.87 in 1.8 mi West 5.8 mph - N/A   Overcast
10:55 AM 48.6 °F 48.6 °F 100% 29.89 in 3.0 mi West 6.9 mph - N/A   Overcast
11:13 AM 48.2 °F 48.2 °F 100% 29.87 in 5.0 mi West 5.8 mph - N/A   Overcast
11:33 AM 48.2 °F 48.2 °F 100% 29.89 in 5.0 mi WSW 8.1 mph - N/A   Overcast
11:48 AM 50.0 °F 50.0 °F 100% 29.89 in 5.0 mi WSW 10.4 mph - N/A   Overcast
11:55 AM 49.8 °F 49.6 °F 99% 29.90 in 10.0 mi West 9.2 mph - N/A   Overcast
12:55 PM 50.7 °F 48.7 °F 93% 29.92 in 10.0 mi West 8.1 mph - N/A   Overcast
1:55 PM 52.5 °F 48.6 °F 86% 29.90 in 7.0 mi WSW 10.4 mph - N/A   Overcast
2:55 PM 56.5 °F 48.6 °F 75% 29.86 in 10.0 mi WSW 8.1 mph - N/A   Mostly Cloudy
3:55 PM 57.4 °F 46.0 °F 66% 29.85 in 10.0 mi WSW 5.8 mph - N/A   Scattered Clouds
4:55 PM 60.6 °F 44.4 °F 55% 29.84 in 10.0 mi West 9.2 mph - N/A   Scattered Clouds
5:55 PM 59.9 °F 42.3 °F 52% 29.85 in 10.0 mi West 13.8 mph - N/A   Scattered Clouds
6:55 PM 59.9 °F 42.4 °F 52% 29.86 in 10.0 mi WSW 10.4 mph - N/A   Scattered Clouds
7:55 PM 55.4 °F 42.6 °F 62% 29.86 in 10.0 mi WSW 5.8 mph - N/A   Clear
8:55 PM 50.4 °F 41.9 °F 73% 29.86 in 10.0 mi SW 3.5 mph - N/A   Clear
9:55 PM 49.6 °F 41.7 °F 74% 29.86 in 10.0 mi SSW 3.5 mph - N/A   Clear
10:55 PM 49.1 °F 41.4 °F 75% 29.87 in 10.0 mi Calm Calm - N/A   Clear
11:55 PM 45.9 °F 40.6 °F 82% 29.86 in 10.0 mi Calm Calm - N/A   Clear